Location: Balaclava NSW 2575, Australia
(34.4510°S, 150.4953°E)
Time: 15:39:15
(UTC+10:00)

A-11 Canister half - Pass Details

Date: 19 June 2021
Orbit: 1513 x 1687 km, 47.2° (Epoch: 26 July)

Event Time Altitude Azimuth Distance (km) Brightness Sun altitude
Rises 18:26:03 0° 267° (W) 4,705 12.9 -18.2°
Reaches altitude 10° 18:29:20 10° 260° (W) 3,745 12.0 -18.9°
Maximum altitude 18:38:13 41° 191° (S) 2,169 9.7 -20.6°
Enters shadow 18:43:32 24° 138° (SE) 2,874 9.9 -21.7°
